Location: Dana
(41.8364°N, 106.7042°W)
Time: 15:09:23
(UTC+00:00)

Transit 2A - Pass Details

Date: 14 May 2026
Orbit: 595 x 948 km, 66.7° (Epoch: 8 June)

Event Time Altitude Azimuth Distance (km) Brightness Sun altitude
Rises 22:33:47 0° 201° (SSW) 3,597 9.8 40.0°
Reaches altitude 10° 22:36:23 10° 199° (SSW) 2,642 9.2 39.5°
Maximum altitude 22:42:32 70° 117° (ESE) 961 6.9 38.4°
Drops below altitude 10° 22:48:21 10° 35° (NE) 2,496 8.4 37.3°
Sets 22:50:44 0° 33° (NNE) 3,385 9.0 36.9°
